Weather History for Rome, NY

Change the Weather History Date:

Thursday, July 11, 2013

  Actual Average Record
Temperature  
Mean Temperature 70 °F -  
Max Temperature 79 °F 81 °F 91 °F (1987)
Min Temperature 63 °F 56 °F 45 °F (1986)
Cooling Degree Days 6    
Growing Degree Days 20 (Base 50)    
Moisture  
Dew Point 63 °F    
Average Humidity 77    
Maximum Humidity 90    
Minimum Humidity 60    
Precipitation  
Precipitation 0.00 in - - ()
Sea Level Pressure  
Sea Level Pressure 29.88 in    
Wind  
Wind Speed 7 mph (West)    
Max Wind Speed 13 mph    
Max Gust Speed -    
Visibility 10 miles    
Events Rain    
Averages and records for this station are not official NWS values.
T = Trace of Precipitation, MM = Missing Value Source: NWS Daily Summary

Daily Weather History Graph

Daily Weather History Graph

Search for Another Location

Airport:

Trip Planner

Search our weather history database for the weather conditions in past years. The results will help you decide how hot, cold, wet, or windy it might be!

Date:

Astronomy

Jul. 11, 2013 Rise Set
Actual Time 5:32 AM EDT 8:41 PM EDT
Civil Twilight 4:57 AM EDT 9:16 PM EDT
Nautical Twilight 4:12 AM EDT 10:00 PM EDT
Astronomical Twilight 3:19 AM EDT 10:54 PM EDT
Moon 8:55 AM EDT (7/11) 10:13 PM EDT (7/11)
Length of Visible Light 16h 18m
Length of Day
15h 09m
Waxing Crescent, 10% of the Moon is Illuminated
Jul 11
Waxing Crescent
Jul 15
First Quarter
Jul 22
Full
Jul 29
Last Quarter
Aug 6
New

Hourly Weather History & Observations

Time (EDT) Temp. Dew Point Humidity Pressure Visibility Wind Dir Wind Speed Gust Speed Precip Events Conditions
12:53 AM 71.1 °F 68.0 °F 90% 29.80 in 10.0 mi WNW 4.6 mph - N/A   Clear
1:53 AM 71.1 °F 68.0 °F 90% 29.80 in 10.0 mi Calm Calm - 0.00 in Rain Light Rain
2:33 AM 72.0 °F 66.0 °F 81% 29.80 in 10.0 mi West 6.9 mph - 0.00 in   Overcast
2:53 AM 71.1 °F 66.0 °F 84% 29.78 in 10.0 mi West 6.9 mph - 0.00 in   Mostly Cloudy
3:34 AM 71.1 °F 66.0 °F 84% 29.81 in 10.0 mi West 9.2 mph - 0.00 in   Overcast
3:53 AM 71.1 °F 66.0 °F 84% 29.80 in 10.0 mi West 9.2 mph - 0.00 in   Overcast
4:53 AM 69.1 °F 64.9 °F 87% 29.83 in 10.0 mi West 9.2 mph - N/A   Overcast
5:53 AM 68.0 °F 63.0 °F 84% 29.86 in 10.0 mi West 11.5 mph - N/A   Overcast
6:53 AM 68.0 °F 63.0 °F 84% 29.88 in 10.0 mi West 8.1 mph - N/A   Overcast
7:53 AM 66.9 °F 62.1 °F 84% 29.90 in 10.0 mi WNW 10.4 mph - N/A   Overcast
8:53 AM 69.1 °F 60.1 °F 73% 29.91 in 10.0 mi WNW 12.7 mph - N/A   Mostly Cloudy
9:53 AM 71.1 °F 60.1 °F 68% 29.92 in 10.0 mi West 11.5 mph - N/A   Mostly Cloudy
10:07 AM 70.0 °F 59.0 °F 68% 29.94 in 10.0 mi West 11.5 mph - N/A   Mostly Cloudy
10:24 AM 71.1 °F 60.1 °F 68% 29.94 in 10.0 mi West 10.4 mph - N/A   Scattered Clouds
10:53 AM 73.9 °F 60.1 °F 62% 29.92 in 10.0 mi West 10.4 mph - N/A   Scattered Clouds
11:53 AM 73.0 °F 60.1 °F 64% 29.93 in 10.0 mi West 10.4 mph - N/A   Mostly Cloudy
12:53 PM 75.0 °F 61.0 °F 62% 29.92 in 10.0 mi West 12.7 mph - N/A   Partly Cloudy
1:53 PM 75.0 °F 60.1 °F 60% 29.92 in 10.0 mi WNW 10.4 mph - N/A   Overcast
11:53 PM 63.0 °F 57.9 °F 84% 30.02 in 10.0 mi Calm Calm - N/A   Clear